Hourly Data Report for April 30, 2020

TORONTO CITY
ONTARIO
Current Station Operator: ECCC - MSC

43°40'00.000" N
79°24'00.000" W
112.50 m
6158355
71508
XTO

Download Data

Hourly Data (April 2020)
Hourly Data Report for April 30, 2020
TIME
LST
Temp Definition
°C
Dew Point Definition
°C
Rel Hum Definition
%
Precip. Amount Definition
mm

Wind Dir Definition
10's deg

Wind Spd Definition
km/h
Visibility Definition
km
Stn Press Definition
kPa
Hmdx Definition


Wind Chill Definition


Weather Definition


00:00 10.4 6.4 76 0.0       99.32     LegendNANA
01:00 10.2 7.4 83 0.4       99.23     LegendNANA
02:00 9.8 7.5 85 0.2       99.15     LegendNANA
03:00 9.2 7.1 86 0.3       99.09     LegendNANA
04:00 8.8 6.6 86 0.2       99.03     LegendNANA
05:00 9.0 6.9 87 0.0       98.99     LegendNANA
06:00 9.1 7.6 90 0.0       99.03     LegendNANA
07:00 10.2 8.8 91 0.4       99.05     LegendNANA
08:00 11.3 9.7 90 0.3       99.03     LegendNANA
09:00 11.7 9.7 88 0.9       99.05     LegendNANA
10:00 11.9 9.8 87 2.2       99.01     LegendNANA
11:00 11.8 9.7 87 1.3       99.01     LegendNANA
12:00 11.9 10.0 88 1.4       99.02     LegendNANA
13:00 11.7 9.7 87 0.3       99.02     LegendNANA
14:00 11.7 9.6 87 0.2       99.03     LegendNANA
15:00 12.0 9.3 84 0.0       99.00     LegendNANA
16:00 12.0 9.2 82 0.0       98.98     LegendNANA
17:00 12.2 9.1 81 0.0       99.00     LegendNANA
18:00 11.4 9.0 85 0.2       99.00     LegendNANA
19:00 11.3 8.9 86 0.0       99.03     LegendNANA
20:00 10.9 8.6 86 0.0       99.07     LegendNANA
21:00 10.1 8.4 89 0.2       99.12     LegendNANA
22:00 10.3 8.6 89 0.0       99.14     LegendNANA
23:00 10.3 8.8 90 0.0       99.15     LegendNANA

Notes on Data Quality.

Legend

  • E = Estimated
  • M = Missing
  • NA = Not Available*
  • [empty] = Indicates an unobserved value
Date modified: